Regional Weather Roundup
Issued by NWS Boston, MA

Current Version | Previous Version | Text Only | Print | Product List | Glossary Off
Versions: 1 2 3 4 5 6 7 8 9 10 11 12 13 14 15 16 17 18 19 20 21 22 23 24 25 26 27 28 29 30 31 32 33 34 35 36 37 38 39 40 41 42 43 44 45 46 47 48 49 50
000 ASUS41 KBOX 170110 RWRBOX REGIONAL WEATHER ROUNDUP NATIONAL WEATHER SERVICE BOSTON/NORTON MA 800 PM EST SUN DEC 16 2018 NOTE: "FAIR" INDICATES FEW OR NO CLOUDS BELOW 12,000 FEET WITH NO SIGNIFICANT WEATHER AND/OR OBSTRUCTIONS TO VISIBILITY. MAZALL-170200- EASTERN MASSACHUSETTS CITY SKY/WX TMP DP RH WIND PRES REMARKS BOSTON HVY RAIN 42 39 89 NE22G28 29.87F FOG BEVERLY LGT RAIN 40 36 86 NE9 29.89F FOG LAWRENCE HVY RAIN 41 34 76 NE14 29.92F BEDFORD HVY RAIN 40 38 93 NE10 29.87F FOG BLUE HILL N/A 37 37 100 NE22G37 29.82F WCI 26 NORWOOD LGT RAIN 43 40 89 NE12 29.86F FOG MARSHFIELD MIX PCPN 43 43 100 NE16G25 29.84F PLYMOUTH LGT RAIN 42 39 89 NE17G26 29.81F FOG TAUNTON RAIN 42 39 89 N9G21 29.79F FOG NEW BEDFORD RAIN 41 41 100 NE16G24 29.76F FOG $$ MAZALL-170200- CAPE COD AND THE ISLANDS CITY SKY/WX TMP DP RH WIND PRES REMARKS FALMOUTH DRIZZLE 41 41 100 E17G29 29.78 HYANNIS LGT RAIN 43 41 93 NE15 29.75F FOG CHATHAM LGT RAIN 44 32 62 NE15G29 29.77F PROVINCETOWN LGT RAIN 42 41 96 NE26G33 29.82F FOG WCI 32 NANTUCKET CLOUDY 45 44 97 NE20G28 29.71F MARTHAS VNYRD RAIN 42 42 100 NE18G29 29.73F FOG $$ MAZALL-170200- CENTRAL AND WESTERN MASSACHUSETTS CITY SKY/WX TMP DP RH WIND PRES REMARKS WORCESTER LGT RAIN 34 33 96 NE12G23 29.83F FOG WCI 25 FITCHBURG LGT RAIN 35 32 88 N8 29.90F FOG WCI 29 ORANGE HVY RAIN 35 32 88 N7 29.89F FOG WCI 29 SPRINGFIELD RAIN 36 34 91 N13 29.84F FOG WCI 27 WESTFIELD HVY RAIN 35 33 92 N13 29.86F FOG WCI 26 NORTH ADAMS LGT RAIN 34 34 100 CALM 29.90F PITTSFIELD LGT RAIN 34 31 88 NE6 29.85F WCI 29 $$ RIZALL-170200- RHODE ISLAND CITY SKY/WX TMP DP RH WIND PRES REMARKS PROVIDENCE RAIN 40 39 97 NE20G26 29.78F FOG WCI 30 NEWPORT LGT RAIN 41 39 93 NE17G33 29.74F FOG BLOCK ISLAND LGT RAIN 42 40 92 NE21G29 29.72 FOG SMITHFIELD RAIN 38 37 97 NE17G23 29.80F FOG WCI 28 WESTERLY LGT RAIN 43 41 93 NE10G22 29.75S FOG $$ CTZALL-170200- CONNECTICUT CITY SKY/WX TMP DP RH WIND PRES REMARKS BRADLEY INTL RAIN 35 35 100 N16 29.84F FOG WCI 25 HARTFORD LGT RAIN 38 35 89 N12G18 29.83F FOG WCI 30 BRIDGEPORT RAIN 40 36 86 N13 29.79F FOG DANBURY LGT RAIN 37 34 89 N9 29.83S FOG WCI 30 GROTON LGT RAIN 41 39 93 N17G25 29.74F FOG NEW HAVEN LGT RAIN 40 37 89 N12G20 29.78F FOG CHESTER LGT RAIN 39 37 93 N13G21 29.76F WCI 32 MERIDEN LGT RAIN 38 35 89 N12G21 29.80F WCI 30 WILLIMANTIC LGT RAIN 39 38 96 NE13G21 29.80F FOG WCI 31 OXFORD LGT RAIN 36 34 92 N15G24 29.79S FOG WCI 27 $$ MEZ002-015-021-024-NHZ003-005-008-011-012-014-VTZ005-008-170200- NORTHERN NEW ENGLAND CITY SKY/WX TMP DP RH WIND PRES REMARKS PORTLAND ME FAIR 35 28 75 NE10 30.00F WCI 27 BANGOR ME CLOUDY 31 26 82 N5 30.03F WCI 26 CONCORD NH CLOUDY 36 28 73 NE9 29.94F WCI 29 MANCHESTER NH LGTSLEET 37 31 78 N10 29.91F WCI 30 NASHUA NH RAIN 35 34 96 N8 29.92F WCI 29 PORTSMOUTH NH LGT RAIN 38 30 75 N13 29.92 WCI 30 JAFFREY NH FRZ RAIN 33 32 96 VRB6 29.88F WCI 28 KEENE NH MIX PCPN 34 31 88 VRB6 29.91F WCI 29 BURLINGTON VT CLOUDY 35 27 72 CALM 29.96F MT. WASHINGTON MOCLDY 19 5 53 E38 N/A WCI -1 $$ NYZ052-076-170200- EASTERN NEW YORK CITY SKY/WX TMP DP RH WIND PRES REMARKS ALBANY LGTSLEET 36 32 85 N6 29.95S FOG WCI 31 NEW YORK CITY RAIN 38 35 89 N16 29.80S FOG WCI 29 $$ ANZALL-170200- MARINE OBSERVATIONS STATION/POSITION TIME TEMP WIND PRES VSBY WAVE AIR SEA DIR/SP/G HT/PER (UTC) (F) (DEG/KT/KT) (MB) (MI) (FT/S) BOSTON BUOY 0050 42 45 50/ 21/ 25 1010.8F 7/ 7 BUZZARDS BAY 0000 41 30/ 30/ 33 1007.0F NANTUCKET SOUND 0050 42 40 50/ 19/ 23 1007.3F 4/ 4 MASS BAY-STELLWA 0004 42 45 70/ 19/ 25 1011.3F 0 8/ 8 ISLE OF SHOALS 0000 42 60/ 26/ 30 1012.7F S OF BLOCK IS 0043 49 N/A 10/ 9 $$ ......................KEY......................... SKY/WX - SKY CONDITION/PRESENT WEATHER TMP - TEMPERATURE IN FAHRENHEIT DWPT - DEWPOINT IN FAHRENHEIT RH - RELATIVE HUMIDITY IN PERCENT WIND - DIRECTION AND SPEED IN MPH PRES - MEAN SEA LEVEL PRESSURE IN INCHES OF HG WCI - WIND CHILL INDEX VSB - VISIBILITY IN MILES HX - HEAT INDEX TC - TEMPERATURE IN CELSIUS VRB - VARIABLE WIND DIRECTION N/A - NOT AVAILABLE

USA.gov is the U.S. government's official web portal to all federal, state and local government web resources and services.